Regional Weather Roundup
Issued by NWS Albany, NY

Home | Current Version | Previous Version | Text Only | Print | Product List | Glossary On
Versions: 1 2 3 4 5 6 7 8 9 10 11 12 13 14 15 16 17 18 19 20 21 22 23 24 25 26 27 28 29 30 31 32 33 34 35 36 37 38 39 40 41 42 43 44 45 46 47 48 49
000
ASUS41 KALY 192310
RWRALY

NEW YORK STATE HOURLY WEATHER ROUNDUP
NATIONAL WEATHER SERVICE ALBANY NY
600 PM EST FRI DEC 19 2014

NOTE: "FAIR" INDICATES FEW OR NO CLOUDS BELOW 12,000 FEET WITH NO
SIGNIFICANT WEATHER AND/OR NO OBSTRUCTIONS TO VISIBILITY.

NYZ032-033-038>043-046>054-057>066-NYZ062>081-200000-
EAST


CITY           SKY/WX    TMP DP  RH WIND       PRES   REMARKS
ALBANY         CLOUDY    29  20  69 NW10      30.14R WCI  20
GLENS FALLS    CLEAR     27  19  72 NE7       30.13R WCI  19
POUGHKEEPSIE   PTCLDY    32  19  58 N7        30.12R WCI  26
NEWBURGH       MOCLDY    30  23  74 NW9       30.12  WCI  22
MONTGOMERY     CLOUDY    31  20  63 NW10      30.11R WCI  22
WHITE PLAINS   MOCLDY    33  21  61 NW14G21   30.08R WCI  23
ISLIP          CLOUDY    37  22  54 NW8       30.07R WCI  31
NEW YORK CITY  PTCLDY    34  22  61 NW18G26   30.12R WCI  23
CENTRAL PARK   MOCLDY    33  19  56 NW9G20    30.14R WCI  25
$$

NYZ005>009-017-018-044>046-055-056-200000-
CENTRAL


CITY           SKY/WX    TMP DP  RH WIND       PRES   REMARKS
FULTON         CLOUDY    27  19  72 NW8       30.20R WCI  19
SYRACUSE       FLURRIES  27  21  78 NW12      30.20R WCI  17
ROME           CLOUDY    25  20  81 NW12      30.20R WCI  14
ELMIRA         CLOUDY    29  21  72 W5        30.17R WCI  24
BINGHAMTON     CLOUDY    23  20  88 NW8       30.11R WCI  14
MONTICELLO     CLOUDY    25  19  80 NW12      30.09R WCI  14
$$

NYZ026>034-041>043-200000-
NORTH


CITY           SKY/WX    TMP DP  RH WIND       PRES   REMARKS
WATERTOWN      CLEAR     23  15  71 CALM      30.21R
FORT DRUM      NOT AVBL
MASSENA        CLEAR     15  10  80 SW7       30.23R WCI   5
SARANAC LAKE   CLOUDY    17  32 100 VRB6      30.08R WCI   9
PLATTSBURGH    CLEAR     21  15  78 CALM      30.18R
$$

NYZ001>004-010>016-019>021-200000-
WEST


CITY           SKY/WX    TMP DP  RH WIND       PRES   REMARKS
NIAGARA FALLS  CLOUDY    28  21  75 W9        30.23R WCI  19
BUFFALO        FLURRIES  29  20  69 W8        30.22R WCI  21
DUNKIRK        CLOUDY    28  20  71 SW8       30.25R WCI  20
JAMESTOWN      CLOUDY    23  18  80 W5        30.18R WCI  17
WELLSVILLE     CLOUDY    23  18  81 NW12      30.14R WCI  12
ROCHESTER      CLOUDY    29  22  75 W7        30.21R WCI  22
PENN YAN       CLOUDY    28  20  71 NW6       30.19R WCI  22
$$

             KEY
       WCI = WIND CHILL INDEX
       VSB = VISIBILITY
       HX  = HEAT INDEX
$$



USA.gov is the U.S. government's official web portal to all federal, state and local government web resources and services.